[[{"header":{"parameterUnit":"m.s-1","parameterCategory":1,"la1":30.2991,"la2":30.254,"lo1":-89.0895,"lo2":-89.0444,"dx":0.0017,"dy":0.0017,"nx":28,"ny":28,"refTime":"2022-11-16T15:00:00:Z","depth":0,"parameterNumber":2,"parameterNumberName":"U-component_of_WINDS"},"data":[0,0,0,0,0,0,0,0,0,0,0,0,0,0,0,0,0,0,0,0,0,0,0,0,0,0,0,0,0,0,0,0,0,0,0,0,0,0,0,0,0,0,0,0,0,0,0,0,0,0,0,0,0,0,0,0,0,0,-3.3884,-3.3885,0,-3.4012,-3.4013,-3.4015,-3.3928,-3.3924,-3.3921,-3.3917,-3.4048,-3.4055,-3.4062,0,0,0,0,0,0,0,0,0,0,0,0,0,-3.3563,-3.357,-3.3884,-3.3885,-3.3887,-3.4012,-3.4013,-3.4015,-3.3929,-3.3924,-3.3919,-3.3915,-3.4046,-3.4054,-3.4063,0,0,0,0,0,0,0,0,0,0,0,0,0,-3.3698,-3.3572,-3.3883,-3.3859,-3.3858,-3.4011,-3.4014,-3.4016,-3.393,-3.3924,-3.3918,-3.3913,-3.4043,-3.4054,-3.4064,-3.4249,0,0,-3.4097,-3.4102,0,0,0,0,0,0,0,0,-3.3691,-3.371,-3.3861,-3.3861,-3.386,-3.3948,-3.3949,-3.4094,-3.3932,-3.3903,-3.3917,-3.391,-3.402,-3.4032,-3.4069,-3.4255,-3.4261,-3.4098,-3.4105,-3.4109,-3.4112,0,0,0,0,0,0,0,-3.3681,-3.3704,-3.3934,-3.3863,-3.3863,-3.3841,-3.3854,-3.3976,-3.3993,-3.3905,-3.3899,-3.3915,-3.4018,-3.4059,-3.4072,-3.4262,-3.4098,-3.4107,-3.4114,-3.4118,-3.4604,-3.4611,0,0,0,0,0,0,-3.3674,-3.3697,-3.393,-3.3938,-3.3759,-3.3852,-3.3866,-3.3926,-3.3991,-3.3996,-3.392,-3.3911,-3.4043,-3.4059,-3.4076,-3.4296,-3.4109,-3.4119,-3.4125,-3.4598,-3.4606,-3.4613,0,0,0,0,0,0,-3.3668,-3.3696,-3.3925,-3.3816,-3.3843,-3.3864,-3.3932,-3.3932,-3.3972,-3.4003,-3.4005,-3.3959,-3.4039,-3.4061,-3.4206,-3.4299,-3.4124,-3.4134,-3.459,-3.46,-3.4609,-3.4737,0,0,0,0,0,0,-3.3659,-3.3694,-3.3765,-3.3818,-3.385,-3.4054,-3.3937,-3.3938,-3.3991,-3.398,-3.404,-3.4044,-3.4036,-3.419,-3.4217,-3.4311,-3.4142,-3.4582,-3.4595,-3.4606,-3.4725,-3.475,-3.4772,0,0,0,0,0,-3.3648,-3.3796,-3.3769,-3.3798,-3.3939,-3.406,-3.4078,-3.4066,-3.3999,-3.407,-3.4089,-3.4042,-3.4284,-3.4206,-3.4235,-3.4333,-3.4576,-3.4591,-3.4605,-3.4714,-3.4745,-3.4771,0,0,0,0,0,0,-3.3754,-3.3803,-3.3773,-3.3943,-3.3998,-3.4045,-3.4134,-3.4099,-3.4175,-3.4161,-3.4143,-3.4158,-3.431,-3.4336,-3.4248,-3.4515,-3.4419,-3.4441,-3.4492,-3.4522,-3.4545,-3.4536,-3.4151,0,0,0,0,0,-3.3797,-3.3891,-3.3929,-3.4075,-3.4104,-3.4115,-3.4167,-3.4153,-3.4209,-3.4232,-3.4262,-3.4318,-3.4406,-3.4465,-3.4549,-3.4727,-3.4739,-3.4809,-3.4833,-3.4852,-3.487,-3.4966,-3.4997,-3.4661,-3.4661,-3.466,0,0,-3.3887,-3.3925,-3.3986,-3.4097,-3.4138,-3.4236,-3.4135,-3.4243,-3.4315,-3.4248,-3.4387,-3.4411,-3.4472,-3.4635,-3.4708,-3.4662,-3.4966,-3.487,-3.4885,-3.4894,-3.4984,-3.5016,-3.5044,-3.4671,-3.4669,-3.4667,0,0,-3.4101,-3.414,-3.4266,-3.4309,-3.4371,-3.4377,-3.4407,-3.4459,-3.4473,-3.4612,-3.4563,-3.4648,-3.4802,-3.4847,-3.489,-3.512,-3.5079,-3.5147,-3.527,-3.5363,-3.539,-3.5413,-3.5495,-3.5525,-3.5165,-3.5166,-3.5166,0,-3.4206,-3.4352,-3.4335,-3.4447,-3.4497,-3.444,-3.4567,-3.4609,-3.4696,-3.4731,-3.4677,-3.4868,-3.4905,-3.5077,-3.5133,-3.517,-3.5203,-3.5141,-3.5387,-3.5411,-3.5432,-3.551,-3.5541,-3.5174,-3.5173,-3.5172,-3.5171,0,-3.4477,-3.4578,-3.4672,-3.4757,-3.4817,-3.4936,-3.4937,-3.5,-3.4981,-3.4992,-3.5133,-3.5176,-3.5266,-3.5306,-3.5288,-3.5475,-3.5444,-3.5389,-3.5294,-3.5473,-3.5545,-3.5575,-3.5185,-3.5182,-3.518,-3.5178,0,0,-3.4763,-3.4836,-3.4871,-3.4908,-3.4972,-3.505,-3.5166,-3.5254,-3.5308,-3.5369,-3.5465,-3.5595,-3.5545,-3.5593,-3.558,-3.5662,-3.584,-3.5597,-3.5598,-3.5641,-3.6048,-3.6089,-3.6124,-3.5813,-3.5818,-3.5823,-3.6043,0,-3.4981,-3.5183,-3.5171,-3.536,-3.5453,-3.54,-3.55,-3.555,-3.5563,-3.5643,-3.5657,-3.575,-3.5676,-3.5705,-3.5784,-3.5802,-3.5922,-3.5786,-3.5902,-3.5906,-3.5889,-3.6162,-3.6206,-3.6412,-3.6071,-3.6076,-3.608,0,-3.5263,-3.5333,-3.5532,-3.5581,-3.562,-3.571,-3.5789,-3.5867,-3.5922,-3.5925,-3.5979,-3.5952,-3.6067,-3.5968,-3.6127,-3.6035,-3.6081,-3.6097,-3.6104,-3.6115,-3.6004,-3.6181,-3.6478,-3.6509,-3.6124,-3.6121,-3.6117,0,-3.5452,-3.5597,-3.5734,-3.5767,-3.5828,-3.5892,-3.5921,-3.5969,-3.6023,-3.6091,-3.6125,-3.6207,-3.6252,-3.6315,-3.631,-3.6238,-3.6471,-3.6371,-3.6477,-3.6477,-3.6529,-3.6526,-3.6838,-3.6559,-3.6558,-3.6558,-3.6557,0,-3.5697,-3.5821,-3.5819,-3.5904,-3.604,-3.6024,-3.616,-3.6181,-3.6224,-3.6311,-3.627,-3.6352,-3.634,-3.6423,-3.6419,-3.6551,-3.6571,-3.6577,-3.6575,-3.6581,-3.6581,-3.6612,-3.6598,-3.6566,-3.6564,-3.6563,-3.6561,0,-3.5932,-3.5936,-3.6082,-3.6127,-3.6141,-3.6239,-3.6277,-3.6357,-3.6365,-3.6476,-3.6501,-3.6515,-3.661,-3.6611,-3.6719,-3.6716,-3.6878,-3.6859,-3.6859,-3.6856,-3.6961,-3.6952,-3.7305,-3.735,-3.7041,-3.7044,-3.7047,0,-3.6089,-3.6182,-3.6237,-3.6292,-3.6324,-3.6414,-3.6467,-3.6455,-3.6512,-3.6581,-3.6652,-3.6743,-3.6815,-3.6969,-3.6988,-3.7071,-3.7054,-3.7172,-3.7066,-3.7069,-3.7055,-3.705,-3.7059,-3.7193,-3.7196,-3.7199,-3.7201,0,-3.6366,-3.6363,-3.6442,-3.6522,-3.6587,-3.6649,-3.6707,-3.6754,-3.6748,-3.6814,-3.6911,-3.6966,-3.7076,-3.7167,-3.7246,-3.7274,-3.7237,-3.7234,-3.7263,-3.7271,-3.7267,-3.727,-3.6916,-3.7226,-3.7224,-3.7222,-3.7221,-3.722,-3.6566,-3.6647,-3.6697,-3.6786,-3.6828,-3.6882,-3.6959,-3.6977,-3.7057,-3.7145,-3.7133,-3.724,-3.729,-3.7393,-3.7428,-3.7511,-3.747,-3.7512,-3.7522,-3.7533,-3.7544,-3.7253,-3.7525,-3.7525,-3.7524,-3.7523,-3.7523,0,-3.6841,-3.6871,-3.6953,-3.7034,-3.7104,-3.7062,-3.7123,-3.7184,-3.7279,-3.7329,-3.74,-3.751,-3.7597,-3.7623,-3.7707,-3.7768,-3.7753,-3.7791,-3.7786,-3.7793,-3.7577,-3.7543,-3.7802,-3.7802,-3.7802,-3.7802,-3.7801,-3.7801,-3.6992,-3.7126,-3.7129,-3.7282,-3.731,-3.7415,-3.7453,-3.7502,-3.7542,-3.7667,-3.7739,-3.7755,-3.7795,-3.7881,-3.7959,-3.7964,-3.7996,-3.8041,-3.8039,-3.7837,-3.7809,-3.7782,-3.7751,-3.8048,-3.8049,-3.8249,-3.8251,-3.8252]},{"header":{"parameterUnit":"m.s-1","parameterCategory":1,"la1":30.2991,"la2":30.254,"lo1":-89.0895,"lo2":-89.0444,"dx":0.0017,"dy":0.0017,"nx":28,"ny":28,"refTime":"2022-11-16T15:00:00:Z","depth":0,"parameterNumber":3,"parameterNumberName":"V-component_of_WINDS"},"data":[0,0,0,0,0,0,0,0,0,0,0,0,0,0,0,0,0,0,0,0,0,0,0,0,0,0,0,0,0,0,0,0,0,0,0,0,0,0,0,0,0,0,0,0,0,0,0,0,0,0,0,0,0,0,0,0,0,0,-5.6376,-5.6377,0,-5.646,-5.6461,-5.6461,-5.6374,-5.6371,-5.6367,-5.6364,-5.6445,-5.645,-5.6455,0,0,0,0,0,0,0,0,0,0,0,0,0,-5.6133,-5.6138,-5.6376,-5.6377,-5.6378,-5.6459,-5.6461,-5.6462,-5.6375,-5.637,-5.6366,-5.6362,-5.6443,-5.645,-5.6456,0,0,0,0,0,0,0,0,0,0,0,0,0,-5.623,-5.6139,-5.6375,-5.6344,-5.6342,-5.6459,-5.6461,-5.6462,-5.6375,-5.637,-5.6365,-5.6361,-5.6441,-5.6449,-5.6457,-5.6607,0,0,-5.6481,-5.6484,0,0,0,0,0,0,0,0,-5.6224,-5.6239,-5.6348,-5.6347,-5.6345,-5.6401,-5.6405,-5.6511,-5.6377,-5.6363,-5.6364,-5.6358,-5.6434,-5.6442,-5.6469,-5.6611,-5.6614,-5.6482,-5.6487,-5.649,-5.6492,0,0,0,0,0,0,0,-5.6218,-5.6234,-5.6409,-5.6349,-5.6347,-5.6324,-5.6332,-5.6424,-5.6426,-5.6363,-5.6357,-5.6369,-5.6432,-5.6462,-5.647,-5.6616,-5.6482,-5.6489,-5.6494,-5.6497,-5.6882,-5.6887,0,0,0,0,0,0,-5.6215,-5.6229,-5.6406,-5.6411,-5.6271,-5.6332,-5.6341,-5.6388,-5.6424,-5.6425,-5.6373,-5.6364,-5.6451,-5.6461,-5.6473,-5.665,-5.649,-5.6497,-5.6502,-5.6876,-5.6883,-5.6889,0,0,0,0,0,0,-5.621,-5.6232,-5.6402,-5.6319,-5.6339,-5.6342,-5.6395,-5.6392,-5.6422,-5.6432,-5.6431,-5.6403,-5.6447,-5.6462,-5.6574,-5.6651,-5.6501,-5.6508,-5.687,-5.6878,-5.6886,-5.7006,0,0,0,0,0,0,-5.6204,-5.6231,-5.629,-5.6321,-5.6344,-5.6505,-5.64,-5.6398,-5.6436,-5.6426,-5.646,-5.6461,-5.6444,-5.6563,-5.6582,-5.6659,-5.6514,-5.6863,-5.6874,-5.6883,-5.6995,-5.7017,-5.7036,0,0,0,0,0,-5.6195,-5.6319,-5.6293,-5.6315,-5.6418,-5.651,-5.6522,-5.6502,-5.6443,-5.6501,-5.6507,-5.6459,-5.664,-5.6575,-5.6596,-5.6677,-5.6858,-5.6871,-5.6883,-5.6985,-5.7012,-5.7035,0,0,0,0,0,0,-5.6296,-5.6323,-5.6294,-5.6432,-5.647,-5.6495,-5.6567,-5.6532,-5.6586,-5.6573,-5.6544,-5.6553,-5.6672,-5.6685,-5.6613,-5.6823,-5.6739,-5.6756,-5.681,-5.6836,-5.6856,-5.6849,-5.6521,0,0,0,0,0,-5.6335,-5.6409,-5.6428,-5.6548,-5.6568,-5.6565,-5.6604,-5.6585,-5.6622,-5.6637,-5.6651,-5.6687,-5.6751,-5.6794,-5.6854,-5.6996,-5.7001,-5.7062,-5.7082,-5.7099,-5.7114,-5.7187,-5.7214,-5.6929,-5.6929,-5.6929,0,0,-5.6414,-5.6438,-5.6487,-5.6568,-5.6595,-5.667,-5.6579,-5.6663,-5.6717,-5.6649,-5.6756,-5.6768,-5.6805,-5.6933,-5.699,-5.6948,-5.7194,-5.7115,-5.7128,-5.7134,-5.7203,-5.723,-5.7254,-5.6938,-5.6936,-5.6935,0,0,-5.6598,-5.6625,-5.6727,-5.6756,-5.6797,-5.6794,-5.6818,-5.6849,-5.6854,-5.6962,-5.6911,-5.6974,-5.7087,-5.7115,-5.7144,-5.7337,-5.7294,-5.7357,-5.7464,-5.7536,-5.7558,-5.7578,-5.7645,-5.7669,-5.7372,-5.7372,-5.7372,0,-5.6692,-5.6806,-5.6783,-5.6871,-5.6907,-5.685,-5.6951,-5.6979,-5.7038,-5.7063,-5.7015,-5.7154,-5.7175,-5.7307,-5.7354,-5.738,-5.7405,-5.7353,-5.7557,-5.7577,-5.7595,-5.7658,-5.7683,-5.7379,-5.7378,-5.7378,-5.7377,0,-5.6917,-5.6997,-5.7074,-5.7133,-5.7178,-5.7272,-5.7261,-5.7309,-5.7286,-5.7287,-5.7395,-5.7419,-5.7481,-5.7511,-5.7489,-5.764,-5.7612,-5.7562,-5.7476,-5.7629,-5.7688,-5.7712,-5.7389,-5.7387,-5.7385,-5.7383,0,0,-5.7168,-5.7213,-5.7242,-5.7267,-5.7307,-5.7367,-5.7457,-5.752,-5.756,-5.7602,-5.7675,-5.777,-5.7723,-5.7756,-5.7736,-5.78,-5.7948,-5.7741,-5.7741,-5.7777,-5.8113,-5.815,-5.8179,-5.7921,-5.7925,-5.7929,-5.8109,0,-5.7352,-5.7511,-5.7492,-5.7642,-5.7714,-5.7659,-5.7737,-5.7769,-5.7772,-5.7831,-5.7832,-5.79,-5.7834,-5.7853,-5.7914,-5.7918,-5.8015,-5.7904,-5.7986,-5.7989,-5.7978,-5.821,-5.825,-5.8419,-5.8132,-5.8136,-5.8139,0,-5.7588,-5.7639,-5.7797,-5.7825,-5.7854,-5.7925,-5.7979,-5.8037,-5.8071,-5.8068,-5.8105,-5.8074,-5.8161,-5.8075,-5.8193,-5.8118,-5.815,-5.8157,-5.8163,-5.8169,-5.8073,-5.8221,-5.8473,-5.8498,-5.8175,-5.8172,-5.817,0,-5.7753,-5.7861,-5.7969,-5.7992,-5.8028,-5.8078,-5.8095,-5.8124,-5.8162,-5.8209,-5.8233,-5.8289,-5.832,-5.8363,-5.8346,-5.8285,-5.8467,-5.838,-5.8466,-5.8466,-5.8506,-5.8504,-5.8765,-5.8529,-5.8528,-5.8528,-5.8527,0,-5.796,-5.8058,-5.8043,-5.811,-5.8217,-5.8193,-5.8299,-5.8309,-5.8335,-5.84,-5.8356,-5.8418,-5.8393,-5.8452,-5.8439,-5.8538,-5.8552,-5.8551,-5.8546,-5.8555,-5.8555,-5.8574,-5.8562,-5.8535,-5.8533,-5.8532,-5.8531,0,-5.8162,-5.8157,-5.827,-5.8294,-5.8303,-5.8381,-5.84,-5.8461,-5.8459,-5.8542,-5.856,-5.8558,-5.8625,-5.8613,-5.8687,-5.8679,-5.8802,-5.8783,-5.8791,-5.8786,-5.8872,-5.8863,-5.9155,-5.919,-5.8932,-5.8935,-5.8937,0,-5.8294,-5.8368,-5.8401,-5.8442,-5.8463,-5.853,-5.8568,-5.8547,-5.8588,-5.8631,-5.8686,-5.875,-5.88,-5.8909,-5.8913,-5.8969,-5.895,-5.9048,-5.8958,-5.8963,-5.8949,-5.8945,-5.8951,-5.9066,-5.9069,-5.9071,-5.9073,0,-5.8528,-5.8521,-5.8579,-5.8637,-5.8684,-5.8728,-5.8767,-5.8802,-5.8784,-5.8832,-5.8901,-5.894,-5.9015,-5.9078,-5.913,-5.9144,-5.9105,-5.9101,-5.9124,-5.9133,-5.9133,-5.9132,-5.8838,-5.9095,-5.9093,-5.9091,-5.909,-5.9089,-5.8698,-5.8761,-5.8793,-5.8858,-5.8886,-5.8923,-5.898,-5.8986,-5.9044,-5.9105,-5.9088,-5.9166,-5.9195,-5.926,-5.9281,-5.9339,-5.9303,-5.9336,-5.9344,-5.9352,-5.9361,-5.9125,-5.9349,-5.9348,-5.9348,-5.9347,-5.9347,0,-5.8928,-5.8946,-5.9007,-5.9063,-5.9114,-5.9074,-5.9114,-5.9159,-5.9228,-5.926,-5.931,-5.9387,-5.9447,-5.9455,-5.9512,-5.9557,-5.954,-5.9572,-5.9568,-5.9571,-5.9392,-5.9366,-5.9585,-5.9585,-5.9585,-5.9584,-5.9584,-5.9584,-5.9054,-5.9157,-5.9154,-5.9269,-5.9285,-5.9362,-5.9388,-5.9421,-5.9446,-5.9535,-5.9586,-5.9591,-5.9612,-5.9669,-5.9721,-5.9722,-5.9744,-5.9783,-5.9776,-5.9608,-5.9584,-5.9562,-5.9537,-5.9788,-5.9788,-5.995,-5.9952,-5.9953]}]]